Regional Weather Roundup
Issued by NWS

Home | Current Version | Previous Version | Text Only | Print | Product List | Glossary On
Versions: 1 2 3 4 5 6 7 8 9 10 11 12 13 14 15 16 17 18 19 20 21 22 23 24 25 26 27 28 29 30 31 32 33 34 35 36 37 38 39 40 41 42 43 44 45 46 47 48 49 50
000
ASUS44 KLIX 230813
RWRLA
LOUISIANA WEATHER ROUNDUP
NATIONAL WEATHER SERVICE NEW ORLEANS LA
200 AM CST THU FEB 23 2017

NOTE: "FAIR" INDICATES FEW OR NO CLOUDS BELOW 12,000 FEET WITH NO
      SIGNIFICANT WEATHER AND/OR OBSTRUCTIONS TO VISIBILITY.
      SKY/WX - SKY CONDITION AND SIGNIFICANT WEATHER.
      TMP - AIR TEMPERATURE.    DP   - DEWPOINT TEMPERATURE.
      RH  - RELATIVE HUMIDITY.  PRES - PRESSURE.
      HX  - HEAT INDEX.         WCI  - WIND CHILL INDEX.

*  THESE STATIONS ARE NOT NWS OR FAA STATIONS AND ARE NOT UNDER
   NWS QUALITY CONTROL.

LAZ040-048-061>063-065-066-069-230900-
SOUTHEAST LOUISIANA

CITY           SKY/WX    TMP DP  RH WIND       PRES   REMARKS
N.O. AUDUBON   NOT AVBL
N.O. INTL ARPT CLEAR     58  57  97 CALM      29.81F
N.O. LAKEFRONT CLEAR     65  60  84 NE6       29.81F
N.O. DOWNTOWN*   N/A     62  56  80 CALM      29.82F
RESERVE*       FAIR      57  55  94 CALM      29.81F
SLIDELL        CLEAR     53  51  93 CALM      29.81F
BATON ROUGE    CLEAR     55  54  96 CALM      29.81F
BOOTHVILLE     CLEAR     61  60  97 NW7       29.81F
BELLE CHASSE   PTCLDY    54  53  97 CALM      29.81F
BOGALUSA*      FAIR      52  49  90 CALM      29.84F
GALLIANO*      MOSUNNY   53  51  92 CALM      29.82F
NEW ROADS*     FAIR      53  53 100 CALM      29.81F
GONZALES*      FAIR      57  55  94 CALM      29.80F
HAMMOND*       CLEAR     52  50  93 CALM      29.81F
HOUMA*         CLEAR     56  55  94 CALM      29.81F
PORT FOURCHON* SUNNY     64  61  88 CALM      29.81F

$$

LAZ041-044-053-054-230900-
SOUTHWEST LOUISIANA

CITY           SKY/WX    TMP DP  RH WIND       PRES   REMARKS
LAKE CHARLES   FOG       56  55  97 CALM      29.79F VSB 3/4
LAFAYETTE      CLEAR     58  55  90 CALM      29.81F
PATTERSON      CLEAR     55  54  96 CALM      29.81F
SALT POINT       N/A     59  58  96 CALM      29.80F
NEW IBERIA     CLEAR     53  51  93 CALM      29.81F
CHENAULT AIRPK FOG       54  54  99 SE3       29.80F VSB 1/4

$$

LAZ027-028-230900-
CENTRAL LOUISIANA

CITY           SKY/WX    TMP DP  RH WIND       PRES   REMARKS
FORT POLK      CLEAR     55  55  98 CALM      29.79F
ALEXANDRIA INT CLEAR     55  54  96 CALM      29.79F
ALEXANDRIA     FOG       50  50 100 CALM      29.80F VSB 3/4

$$

LAZ001-002-230900-
NORTHWEST LOUISIANA

CITY           SKY/WX    TMP DP  RH WIND       PRES   REMARKS
SHREVEPORT     CLEAR     58  54  86 SE6       29.75F
BARKSDALE AFB  CLEAR     54  53  97 SE6       29.76F
DTN SHREVEPORT CLEAR     59  54  83 SE5       29.76F

$$

LAZ014-016-230900-
NORTHEAST LOUISIANA

CITY           SKY/WX    TMP DP  RH WIND       PRES   REMARKS
MONROE         CLEAR     52  51  97 CALM      29.80F
TALLULAH       CLEAR     54  53  97 CALM      29.80F

$$




USA.gov is the U.S. government's official web portal to all federal, state and local government web resources and services.